Time,TemperatureF,DewpointF,PressureIn,WindDirection,WindDirectionDegrees,WindSpeedMPH,WindSpeedGustMPH,Humidity,HourlyPrecipIn,Conditions,Clouds,dailyrainin,SoftwareType,DateUTC
2013-09-09 00:14:00,57.0,41.0,30.14,East,98,1.0,5.0,55,0.00,,,0.00,weatherlink.com 1.10,2013-09-09 04:14:00,
2013-09-09 00:29:00,56.7,41.0,30.14,NNE,20,2.0,7.0,56,0.00,,,0.00,weatherlink.com 1.10,2013-09-09 04:29:00,
2013-09-09 00:44:00,56.5,41.0,30.14,NE,46,1.0,6.0,56,0.00,,,0.00,weatherlink.com 1.10,2013-09-09 04:44:00,
2013-09-09 00:59:00,56.2,40.0,30.14,NNE,23,0.0,4.0,56,0.00,,,0.00,weatherlink.com 1.10,2013-09-09 04:59:00,
2013-09-09 01:14:00,55.9,40.0,30.14,NNE,20,2.0,5.0,56,0.00,,,0.00,weatherlink.com 1.10,2013-09-09 05:14:00,
2013-09-09 01:29:00,55.8,41.0,30.14,NNW,332,1.0,6.0,57,0.00,,,0.00,weatherlink.com 1.10,2013-09-09 05:29:00,
2013-09-09 01:44:00,55.4,41.0,30.15,NNE,27,2.0,5.0,58,0.00,,,0.00,weatherlink.com 1.10,2013-09-09 05:44:00,
2013-09-09 01:59:00,55.1,40.0,30.15,NNW,335,3.0,9.0,58,0.00,,,0.00,weatherlink.com 1.10,2013-09-09 05:59:00,
2013-09-09 02:14:00,55.0,41.0,30.16,WSW,253,1.0,7.0,60,0.00,,,0.00,weatherlink.com 1.10,2013-09-09 06:14:00,
2013-09-09 02:29:00,54.5,41.0,30.16,WNW,291,4.0,5.0,61,0.00,,,0.00,weatherlink.com 1.10,2013-09-09 06:29:00,
2013-09-09 02:44:00,54.1,41.0,30.16,WNW,284,0.0,6.0,61,0.00,,,0.00,weatherlink.com 1.10,2013-09-09 06:44:00,
2013-09-09 02:59:00,53.8,41.0,30.17,SW,235,0.0,1.0,62,0.00,,,0.00,weatherlink.com 1.10,2013-09-09 06:59:00,
2013-09-09 03:14:00,53.6,41.0,30.17,WNW,284,4.0,6.0,63,0.00,,,0.00,weatherlink.com 1.10,2013-09-09 07:14:00,
2013-09-09 03:29:00,53.4,41.0,30.18,West,263,0.0,5.0,63,0.00,,,0.00,weatherlink.com 1.10,2013-09-09 07:29:00,
2013-09-09 03:45:00,53.1,41.0,30.18,West,278,1.0,6.0,64,0.00,,,0.00,weatherlink.com 1.10,2013-09-09 07:45:00,
2013-09-09 03:59:00,52.9,41.0,30.18,WNW,283,2.0,5.0,64,0.00,,,0.00,weatherlink.com 1.10,2013-09-09 07:59:00,
2013-09-09 04:14:00,52.8,41.0,30.19,WNW,294,0.0,4.0,65,0.00,,,0.00,weatherlink.com 1.10,2013-09-09 08:14:00,
2013-09-09 04:29:00,52.6,41.0,30.20,NW,321,3.0,4.0,65,0.00,,,0.00,weatherlink.com 1.10,2013-09-09 08:29:00,
2013-09-09 04:44:00,52.6,41.0,30.20,NW,315,0.0,3.0,65,0.00,,,0.00,weatherlink.com 1.10,2013-09-09 08:44:00,
2013-09-09 04:59:00,52.6,41.0,30.21,NNE,13,1.0,3.0,65,0.00,,,0.00,weatherlink.com 1.10,2013-09-09 08:59:00,
2013-09-09 05:14:00,52.5,41.0,30.21,NNE,20,0.0,4.0,65,0.00,,,0.00,weatherlink.com 1.10,2013-09-09 09:14:00,
2013-09-09 05:29:00,52.2,41.0,30.22,NNW,330,0.0,6.0,66,0.00,,,0.00,weatherlink.com 1.10,2013-09-09 09:29:00,
2013-09-09 05:44:00,51.9,41.0,30.23,NW,316,1.0,5.0,67,0.00,,,0.00,weatherlink.com 1.10,2013-09-09 09:44:00,
2013-09-09 05:59:00,51.8,41.0,30.23,WNW,298,3.0,4.0,67,0.00,,,0.00,weatherlink.com 1.10,2013-09-09 09:59:00,
2013-09-09 06:14:00,51.8,41.0,30.24,WNW,282,3.0,4.0,66,0.00,,,0.00,weatherlink.com 1.10,2013-09-09 10:14:00,
2013-09-09 06:29:00,51.7,41.0,30.25,SSW,203,1.0,3.0,67,0.00,,,0.00,weatherlink.com 1.10,2013-09-09 10:29:00,
2013-09-09 06:45:00,51.5,41.0,30.25,West,276,0.0,4.0,67,0.00,,,0.00,weatherlink.com 1.10,2013-09-09 10:45:00,
2013-09-09 07:00:00,51.8,41.0,30.25,WNW,285,3.0,5.0,66,0.00,,,0.00,weatherlink.com 1.10,2013-09-09 11:00:00,
2013-09-09 07:15:00,52.2,41.0,30.26,West,270,2.0,3.0,66,0.00,,,0.00,weatherlink.com 1.10,2013-09-09 11:15:00,
2013-09-09 07:30:00,53.3,41.0,30.26,NW,307,2.0,5.0,63,0.00,,,0.00,weatherlink.com 1.10,2013-09-09 11:30:00,
2013-09-09 07:45:00,53.6,41.0,30.27,WNW,298,2.0,6.0,62,0.00,,,0.00,weatherlink.com 1.10,2013-09-09 11:45:00,
2013-09-09 08:00:00,53.9,41.0,30.27,NW,314,3.0,6.0,63,0.00,,,0.00,weatherlink.com 1.10,2013-09-09 12:00:00,
2013-09-09 08:15:00,54.6,42.0,30.27,NNW,344,0.0,5.0,62,0.00,,,0.00,weatherlink.com 1.10,2013-09-09 12:15:00,
2013-09-09 08:30:00,55.2,42.0,30.27,WNW,294,0.0,5.0,62,0.00,,,0.00,weatherlink.com 1.10,2013-09-09 12:30:00,
2013-09-09 08:45:00,56.5,42.0,30.27,WNW,287,3.0,4.0,58,0.00,,,0.00,weatherlink.com 1.10,2013-09-09 12:45:00,
2013-09-09 09:00:00,57.6,40.0,30.27,WNW,283,1.0,4.0,53,0.00,,,0.00,weatherlink.com 1.10,2013-09-09 13:00:00,
2013-09-09 09:15:00,58.9,41.0,30.28,NW,326,1.0,4.0,52,0.00,,,0.00,weatherlink.com 1.10,2013-09-09 13:15:00,
2013-09-09 09:30:00,60.0,41.0,30.28,NNW,340,1.0,4.0,50,0.00,,,0.00,weatherlink.com 1.10,2013-09-09 13:30:00,
2013-09-09 09:45:00,61.1,42.0,30.28,SSW,195,3.0,5.0,49,0.00,,,0.00,weatherlink.com 1.10,2013-09-09 13:45:00,
2013-09-09 10:00:00,62.1,39.0,30.28,SW,236,2.0,8.0,42,0.00,,,0.00,weatherlink.com 1.10,2013-09-09 14:00:00,
2013-09-09 10:15:00,63.1,38.0,30.28,SW,222,6.0,11.0,40,0.00,,,0.00,weatherlink.com 1.10,2013-09-09 14:15:00,
2013-09-09 10:30:00,62.9,39.0,30.27,WNW,285,1.0,8.0,41,0.00,,,0.00,weatherlink.com 1.10,2013-09-09 14:30:00,
2013-09-09 10:45:00,63.0,38.0,30.27,West,276,3.0,8.0,40,0.00,,,0.00,weatherlink.com 1.10,2013-09-09 14:45:00,
2013-09-09 11:00:00,63.4,39.0,30.26,NW,308,2.0,7.0,40,0.00,,,0.00,weatherlink.com 1.10,2013-09-09 15:00:00,
2013-09-09 11:30:00,64.3,39.0,30.26,WNW,298,5.0,8.0,39,0.00,,,0.00,weatherlink.com 1.10,2013-09-09 15:30:00,
2013-09-09 11:45:00,65.0,39.0,30.25,NNW,332,3.0,9.0,39,0.00,,,0.00,weatherlink.com 1.10,2013-09-09 15:45:00,
2013-09-09 12:00:00,66.3,41.0,30.25,WSW,246,1.0,8.0,40,0.00,,,0.00,weatherlink.com 1.10,2013-09-09 16:00:00,
2013-09-09 12:15:00,65.3,39.0,30.25,WNW,298,4.0,11.0,38,0.00,,,0.00,weatherlink.com 1.10,2013-09-09 16:15:00,
2013-09-09 12:30:00,65.8,39.0,30.24,WNW,288,6.0,11.0,38,0.00,,,0.00,weatherlink.com 1.10,2013-09-09 16:30:00,
2013-09-09 12:45:00,65.9,40.0,30.24,NW,305,3.0,9.0,39,0.00,,,0.00,weatherlink.com 1.10,2013-09-09 16:45:00,
2013-09-09 13:00:00,67.1,41.0,30.23,SSW,211,4.0,12.0,38,0.00,,,0.00,weatherlink.com 1.10,2013-09-09 17:00:00,
2013-09-09 13:15:00,67.6,40.0,30.23,NW,314,2.0,10.0,37,0.00,,,0.00,weatherlink.com 1.10,2013-09-09 17:15:00,
2013-09-09 13:31:00,67.9,41.0,30.23,WNW,300,1.0,11.0,37,0.00,,,0.00,weatherlink.com 1.10,2013-09-09 17:31:00,
2013-09-09 13:46:00,67.7,39.0,30.22,SSW,207,7.0,11.0,35,0.00,,,0.00,weatherlink.com 1.10,2013-09-09 17:46:00,
2013-09-09 14:01:00,67.2,41.0,30.22,SSW,194,3.0,12.0,38,0.00,,,0.00,weatherlink.com 1.10,2013-09-09 18:01:00,
2013-09-09 14:16:00,67.7,41.0,30.22,NNW,339,0.0,7.0,38,0.00,,,0.00,weatherlink.com 1.10,2013-09-09 18:16:00,
2013-09-09 14:31:00,67.8,41.0,30.21,SW,229,2.0,8.0,38,0.00,,,0.00,weatherlink.com 1.10,2013-09-09 18:31:00,
2013-09-09 14:46:00,68.4,42.0,30.21,WSW,253,2.0,11.0,39,0.00,,,0.00,weatherlink.com 1.10,2013-09-09 18:46:00,
2013-09-09 15:01:00,69.2,43.0,30.21,SSW,203,4.0,11.0,39,0.00,,,0.00,weatherlink.com 1.10,2013-09-09 19:01:00,
2013-09-09 15:16:00,68.8,43.0,30.21,WSW,256,3.0,9.0,40,0.00,,,0.00,weatherlink.com 1.10,2013-09-09 19:16:00,
2013-09-09 15:31:00,68.3,44.0,30.21,WSW,249,1.0,9.0,41,0.00,,,0.00,weatherlink.com 1.10,2013-09-09 19:31:00,
2013-09-09 15:46:00,68.4,45.0,30.21,WSW,240,5.0,7.0,43,0.00,,,0.00,weatherlink.com 1.10,2013-09-09 19:46:00,
2013-09-09 16:01:00,68.0,45.0,30.21,West,261,3.0,10.0,43,0.00,,,0.00,weatherlink.com 1.10,2013-09-09 20:01:00,
2013-09-09 16:16:00,68.4,46.0,30.21,NW,316,5.0,8.0,44,0.00,,,0.00,weatherlink.com 1.10,2013-09-09 20:16:00,
2013-09-09 16:31:00,68.1,46.0,30.21,SW,217,5.0,12.0,45,0.00,,,0.00,weatherlink.com 1.10,2013-09-09 20:31:00,
2013-09-09 16:46:00,68.4,46.0,30.20,WSW,242,5.0,8.0,45,0.00,,,0.00,weatherlink.com 1.10,2013-09-09 20:46:00,
2013-09-09 17:01:00,68.1,46.0,30.20,SW,217,9.0,10.0,45,0.00,,,0.00,weatherlink.com 1.10,2013-09-09 21:01:00,
2013-09-09 17:16:00,67.8,45.0,30.21,NW,307,5.0,10.0,44,0.00,,,0.00,weatherlink.com 1.10,2013-09-09 21:16:00,
2013-09-09 17:31:00,68.1,45.0,30.21,SW,231,1.0,9.0,44,0.00,,,0.00,weatherlink.com 1.10,2013-09-09 21:31:00,
2013-09-09 17:46:00,67.9,44.0,30.20,SSW,209,10.0,11.0,43,0.00,,,0.00,weatherlink.com 1.10,2013-09-09 21:46:00,
2013-09-09 18:01:00,67.4,43.0,30.20,SW,217,6.0,11.0,42,0.00,,,0.00,weatherlink.com 1.10,2013-09-09 22:01:00,
2013-09-09 18:16:00,66.6,44.0,30.20,WNW,295,1.0,9.0,45,0.00,,,0.00,weatherlink.com 1.10,2013-09-09 22:16:00,
2013-09-09 18:31:00,66.0,44.0,30.20,SW,236,0.0,8.0,46,0.00,,,0.00,weatherlink.com 1.10,2013-09-09 22:31:00,
2013-09-09 18:46:00,64.5,49.0,30.20,SW,222,5.0,11.0,58,0.00,,,0.00,weatherlink.com 1.10,2013-09-09 22:46:00,
2013-09-09 19:01:00,63.3,48.0,30.20,WSW,246,0.0,5.0,58,0.00,,,0.00,weatherlink.com 1.10,2013-09-09 23:01:00,
2013-09-09 19:16:00,62.6,48.0,30.20,SSW,207,5.0,9.0,59,0.00,,,0.00,weatherlink.com 1.10,2013-09-09 23:16:00,
2013-09-09 19:31:00,62.0,48.0,30.20,SW,218,2.0,6.0,60,0.00,,,0.00,weatherlink.com 1.10,2013-09-09 23:31:00,
2013-09-09 19:46:00,61.5,48.0,30.20,SW,224,0.0,6.0,62,0.00,,,0.00,weatherlink.com 1.10,2013-09-09 23:46:00,
2013-09-09 20:01:00,61.1,49.0,30.20,South,170,3.0,10.0,64,0.00,,,0.00,weatherlink.com 1.10,2013-09-10 00:01:00,
2013-09-09 20:16:00,60.7,49.0,30.20,SW,221,5.0,8.0,65,0.00,,,0.00,weatherlink.com 1.10,2013-09-10 00:16:00,
2013-09-09 20:31:00,60.4,49.0,30.20,South,187,1.0,7.0,67,0.00,,,0.00,weatherlink.com 1.10,2013-09-10 00:31:00,
2013-09-09 20:46:00,60.2,49.0,30.21,SW,233,2.0,7.0,67,0.00,,,0.00,weatherlink.com 1.10,2013-09-10 00:46:00,
2013-09-09 21:01:00,60.0,49.0,30.21,WSW,255,4.0,8.0,68,0.00,,,0.00,weatherlink.com 1.10,2013-09-10 01:01:00,
2013-09-09 21:16:00,59.6,49.0,30.21,SSW,200,3.0,7.0,69,0.00,,,0.00,weatherlink.com 1.10,2013-09-10 01:16:00,
2013-09-09 21:31:00,59.5,50.0,30.21,SSW,210,1.0,6.0,70,0.00,,,0.00,weatherlink.com 1.10,2013-09-10 01:31:00,
2013-09-09 21:46:00,59.3,50.0,30.20,SW,228,1.0,7.0,70,0.00,,,0.00,weatherlink.com 1.10,2013-09-10 01:46:00,
2013-09-09 22:02:00,59.3,50.0,30.21,SSW,212,3.0,8.0,71,0.00,,,0.00,weatherlink.com 1.10,2013-09-10 02:02:00,
2013-09-09 22:16:00,59.3,50.0,30.21,WSW,250,1.0,7.0,71,0.00,,,0.00,weatherlink.com 1.10,2013-09-10 02:16:00,
2013-09-09 22:31:00,59.3,50.0,30.21,NW,323,0.0,6.0,71,0.00,,,0.00,weatherlink.com 1.10,2013-09-10 02:31:00,
2013-09-09 22:46:00,59.3,50.0,30.21,ESE,122,1.0,7.0,71,0.00,,,0.00,weatherlink.com 1.10,2013-09-10 02:46:00,
2013-09-09 23:01:00,59.3,50.0,30.21,SW,233,2.0,7.0,71,0.00,,,0.00,weatherlink.com 1.10,2013-09-10 03:01:00,
2013-09-09 23:16:00,59.0,50.0,30.20,SW,217,3.0,5.0,72,0.00,,,0.00,weatherlink.com 1.10,2013-09-10 03:16:00,
2013-09-09 23:31:00,58.8,50.0,30.20,SW,224,1.0,6.0,73,0.00,,,0.00,weatherlink.com 1.10,2013-09-10 03:31:00,
2013-09-09 23:46:00,58.5,50.0,30.20,WSW,240,4.0,6.0,74,0.00,,,0.00,weatherlink.com 1.10,2013-09-10 03:46:00,